1329177632170,18.4060
1329177692170,18.4282
1329177752170,18.4969
1329177812170,18.4659
1329177872170,18.4028
1329177932170,18.4490
1329177992170,18.4530
1329178052170,18.5008
1329178112170,18.5062
1329178172170,18.5275
1329178232170,18.5104
1329178292170,18.4747
1329178352170,18.4971
1329178412170,18.5011
1329178472170,18.5172
1329178532170,18.4561
1329178592170,18.5021
1329178652170,18.4700
1329178712170,18.4491
1329178772170,18.4653
1329178832170,18.4733
1329178892170,18.5048
1329178952170,18.5237
1329179012170,18.4585
1329179072170,18.4838
1329179132170,18.4959
1329179192170,18.4717
1329179252170,18.4675
1329179312170,18.4826
1329179372170,18.5043
1329179432170,18.4468
1329179492170,18.4608
1329179552170,18.4673
1329179612170,18.4577
1329179672170,18.4098
1329179732170,18.4836
1329179792170,18.4293
1329179852170,18.4841
1329179912170,18.5042
1329179972170,18.5067
1329180032170,18.4438
1329180092170,18.4745
1329180152170,18.4398
1329180212170,18.4980
1329180272170,18.4779
1329180332170,18.4594
1329180392170,18.4627
1329180452170,18.4278
1329180512170,18.4488
1329180572170,18.4662
1329180632170,18.4535
1329180692170,18.5379
1329180752170,18.4490
1329180812170,18.4807
1329180872170,18.5184
1329180932170,18.4518
1329180992170,18.4683
1329181052170,18.4389
1329181112170,18.4048
1329181172170,18.4289
1329181232180,18.3775
1329181292180,18.4105
1329181352180,18.4312
1329181412180,18.4070
1329181472180,18.4270
1329181532180,18.4130
1329181592180,18.4192
1329181652180,18.4141
1329181712180,18.4789
1329181772180,18.4621
1329181832180,18.4638
1329181892180,18.5221
1329181952180,18.5103
1329182012180,18.5365
1329182072180,18.5265
1329182132180,18.6373
1329182192180,18.5900
1329182252180,18.5158
1329182312180,18.5210
1329182372180,18.5158
1329182432180,18.4969
1329182492180,18.5306
1329182552180,18.5186
1329182612180,18.5082
1329182672180,18.5036
1329182732180,18.4755
1329182792180,18.4481
1329182852180,18.4788
1329182912180,18.4778
1329182972180,18.5306
1329183032180,18.4868
1329183092180,18.5096
1329183152180,18.4910
1329183212180,18.4881
1329183272180,18.4739
1329183332180,18.4737
1329183392180,18.5016
1329183452180,18.4733
1329183512180,18.5483
1329183572180,18.4984
1329183632180,18.4710
1329183692180,18.5031
1329183752180,18.5070
1329183812180,18.4956
1329183872180,18.5084
1329183932180,18.4710
1329183992180,18.5293
1329184052180,18.5357
1329184112180,18.5322
1329184172180,18.4854
1329184232180,18.4698
1329184292180,18.4698
1329184352180,18.5278
1329184412180,18.4833
1329184472180,18.4780
1329184532180,18.5095
1329184592180,18.4377
1329184652180,18.4137
1329184712180,18.4568
1329184772180,18.5217
1329184832191,18.5089
1329184892191,18.5237
1329184952191,18.5032
1329185012191,18.4962
1329185072191,18.4908
1329185132191,18.5164
1329185192191,18.4574
1329185252191,18.5599
1329185312191,18.4976
1329185372191,18.4846
1329185432191,18.4765
1329185492191,18.4847
1329185552191,18.5031
1329185612191,18.4233
1329185672191,18.4878
1329185732191,18.4800
1329185792191,18.4429
1329185852191,18.4658
1329185912191,18.5139
1329185972191,18.4662
1329186032191,18.4957
1329186092191,18.5339
1329186152191,18.4933
1329186212191,18.5157
1329186272191,18.5924
1329186332191,18.4565
1329186392191,18.5129
1329186452191,18.4439
1329186512191,18.4777
1329186572191,18.4821
1329186632191,18.4996
1329186692191,18.4785
1329186752191,18.4256
1329186812191,18.4811
1329186872191,18.4890
1329186932191,18.5110
1329186992191,18.5116
1329187052191,18.4967
1329187112191,18.4946
1329187172191,18.4850
1329187232191,18.5119
1329187292191,18.4882
1329187352191,18.5120
1329187412191,18.4595
1329187472191,18.5138
1329187532191,18.4572
1329187592191,18.4559
1329187652191,18.4942
1329187712191,18.5169
1329187772191,18.5384
1329187832191,18.5300
1329187892191,18.5158
1329187952191,18.5359
1329188012191,18.4520
1329188072191,18.5199
1329188132191,18.5312
1329188192191,18.4686
1329188252191,18.5243
1329188312191,18.5254
1329188372191,18.4748
1329188432202,18.4669
1329188492202,18.4877
1329188552202,18.4917
1329188612202,18.4878
1329188672202,18.5192
1329188732202,18.4775
1329188792202,18.5236
1329188852202,18.5158
1329188912202,18.5256
1329188972202,18.4706
1329189032202,18.4891
1329189092202,18.5450
1329189152202,18.5484
1329189212202,18.5288
1329189272202,18.5540
1329189332202,18.5009
1329189392202,18.5574
1329189452202,18.4904
1329189512202,18.5280
1329189572202,18.5425
1329189632202,18.5192
1329189692202,18.5175
1329189752202,18.5428
1329189812202,18.5571
1329189872202,18.5002
1329189932202,18.4844
1329189992202,18.4678
1329190052202,18.5597
1329190112202,18.4860
1329190172202,18.4851
1329190232202,18.5238
1329190292202,18.4683
1329190352202,18.5175
1329190412202,18.6008
1329190472202,18.5320
1329190532202,18.4944
1329190592202,18.5206
1329190652202,18.5288
1329190712202,18.5053
1329190772202,18.4826
1329190832202,18.4885
1329190892202,18.5077
1329190952202,18.5037
1329191012202,18.4650
1329191072202,18.5187
1329191132202,18.4846
1329191192202,18.4865
1329191252202,18.5283
1329191312202,18.5053
1329191372202,18.5476
1329191432202,18.5320
1329191492202,18.5809
1329191552202,18.4842
1329191612202,18.5616
1329191672202,18.5738
1329191732202,18.5748
1329191792202,18.5387
1329191852202,18.5698
1329191912202,18.5529
1329191972202,18.5599
1329192032213,18.4991
1329192092213,18.4744
1329192152213,18.4689
1329192212213,18.4639
1329192272213,18.5515
1329192332213,18.4790
1329192392213,18.4583
1329192452213,18.4545
1329192512213,18.4824
1329192572213,18.4477
1329192632213,18.4164
1329192692213,18.4281
1329192752213,18.4813
1329192812213,18.4234
1329192872213,18.4758
1329192932213,18.4910
1329192992213,18.4927
1329193052213,18.4919
1329193112213,18.4597
1329193172213,18.5044
1329193232213,18.5032
1329193292213,18.4502
1329193352213,18.5054
1329193412213,18.4967
1329193472213,18.4931
1329193532213,18.4551
1329193592213,18.4787
1329193652213,18.5144
1329193712213,18.4297
1329193772213,18.5138
1329193832213,18.4849
1329193892213,18.4866
1329193952213,18.4957
1329194012213,18.4502
1329194072213,18.4411
1329194132213,18.4352
1329194192213,18.4838
1329194252213,18.4565
1329194312213,18.4578
1329194372213,18.4599
1329194432213,18.4483
1329194492213,18.4743
1329194552213,18.4349
1329194612213,18.4641
1329194672213,18.5069
1329194732213,18.4776
1329194792213,18.4537
1329194852213,18.4502
1329194912213,18.4398
1329194972213,18.5086
1329195032213,18.4885
1329195092213,18.4372
1329195152213,18.4576
1329195212213,18.4582
1329195272213,18.4908
1329195332213,18.4808
1329195392213,18.5424
1329195452213,18.5073
1329195512213,18.4986
1329195572213,18.4986
1329195632224,18.5210
1329195692224,18.4483
1329195752224,18.5205
1329195812224,18.4739
1329195872224,18.5269
1329195932224,18.5260
1329195992224,18.5260
1329196052224,18.4727
1329196112224,18.5082
1329196172224,18.4462
1329196232224,18.5323
1329196292224,18.5162
1329196352224,18.4131
1329196412224,18.4603
1329196472224,18.4753
1329196532224,18.5545
1329196592224,18.4786
1329196652224,18.5201
1329196712224,18.5237
1329196772224,18.4939
1329196832224,18.4980
1329196892224,18.5236
1329196952224,18.5059
1329197012224,18.5172
1329197072224,18.5008
1329197132224,18.5256
1329197192224,18.4809
1329197252224,18.4811
1329197312224,18.4337
1329197372224,18.5237
1329197432224,18.4857
1329197492224,18.4916
1329197552224,18.5319
1329197612224,18.4970
1329197672224,18.4873
1329197732224,18.5556
1329197792224,18.4334
1329197852224,18.5127
1329197912224,18.4759
1329197972224,18.4189
1329198032224,18.4490
1329198092224,18.4386
1329198152224,18.4635
1329198212224,18.4356
1329198272224,18.4604
1329198332224,18.4662
1329198392224,18.3996
1329198452224,18.4806
1329198512224,18.4928
1329198572224,18.4577
1329198632224,18.4884
1329198692224,18.4476
1329198752224,18.4517
1329198812224,18.4780
1329198872224,18.4127
1329198932224,18.4954
1329198992224,18.4318
1329199052224,18.4262
1329199112224,18.4163
1329199172224,18.4475
1329199232235,18.4378
1329199292235,18.4357
1329199352235,18.4042
1329199412235,18.4982
1329199472235,18.4463
1329199532235,18.4438
1329199592235,18.4452
1329199652235,18.4081
1329199712235,18.4331
1329199772235,18.4152
1329199832235,18.4581
1329199892235,18.4846
1329199952235,18.4722
1329200012235,18.4549
1329200072235,18.4705
1329200132235,18.4429
1329200192235,18.5053
1329200252235,18.4363
1329200312235,18.4609
1329200372235,18.4740
1329200432235,18.4736
1329200492235,18.5077
1329200552235,18.4037
1329200612235,18.4651
1329200672235,18.5055
1329200732235,18.4975
1329200792235,18.4281
1329200852235,18.4928
1329200912235,18.5025
1329200972235,18.4241
1329201032235,18.4978
1329201092235,18.5209
1329201152235,18.4549
1329201212235,18.4893
1329201272235,18.4798
1329201332235,18.4588
1329201392235,18.5068
1329201452235,18.4429
1329201512235,18.4025
1329201572235,18.4794
1329201632235,18.4411
1329201692235,18.4910
1329201752235,18.4187
1329201812235,18.4944
1329201872235,18.4801
1329201932235,18.4833
1329201992235,18.4811
1329202052235,18.4714
1329202112235,18.5098
1329202172235,18.5347
1329202232235,18.5086
1329202292235,18.5412
1329202352235,18.4853
1329202412235,18.4902
1329202472235,18.5109
1329202532235,18.5200
1329202592235,18.5601
1329202652235,18.5372
1329202712235,18.4926
1329202772235,18.5124
1329202832247,18.5462
1329202892247,18.5304
1329202952247,18.4423
1329203012247,18.4710
1329203072247,18.4956
1329203132247,18.4669
1329203192247,18.5267
1329203252247,18.4934
1329203312247,18.5197
1329203372247,18.5244
1329203432247,18.4760
1329203492247,18.4636
1329203552247,18.4285
1329203612247,18.4741
1329203672247,18.4639
1329203732247,18.4484
1329203792247,18.4285
1329203852247,18.4642
1329203912247,18.4265
1329203972247,18.4614
1329204032247,18.4236
1329204092247,18.4769
1329204152247,18.4166
1329204212247,18.4714
1329204272247,18.4688
1329204332247,18.4768
1329204392247,18.4968
1329204452247,18.5269
1329204512247,18.4984
1329204572247,18.5005
1329204632247,18.4669
1329204692247,18.5148
1329204752247,18.4197
1329204812247,18.5123
1329204872247,18.5072
1329204932247,18.5110
1329204992247,18.5299
1329205052247,18.4801
1329205112247,18.5959
1329205172247,18.4796
1329205232247,18.5233
1329205292247,18.4903
1329205352247,18.4663
1329205412247,18.4841
1329205472247,18.4687
1329205532247,18.5075
1329205592247,18.4776
1329205652247,18.4844
1329205712247,18.5018
1329205772247,18.4672
1329205832247,18.4668
1329205892247,18.4607
1329205952247,18.4367
1329206012247,18.5080
1329206072247,18.4968
1329206132247,18.4992
1329206192247,18.4940
1329206252247,18.5210
1329206312247,18.5340
1329206372247,18.5528
1329206432258,18.5600
1329206492258,18.5394
1329206552258,18.5778
1329206612258,18.5153
1329206672258,18.5342
1329206732258,18.5550
1329206792258,18.4837
1329206852258,18.4931
1329206912258,18.5049
1329206972258,18.5244
1329207032258,18.5374
1329207092258,18.5029
1329207152258,18.5807
1329207212258,18.5559
1329207272258,18.5472
1329207332258,18.5894
1329207392258,18.5706
1329207452258,18.5295
1329207512258,18.5715
1329207572258,18.5644
1329207632258,18.5684
1329207692258,18.5583
1329207752258,18.5198
1329207812258,18.6050
1329207872258,18.5667
1329207932258,18.5185
1329207992258,18.6027
1329208052258,18.5845
1329208112258,18.6237
1329208172258,18.5498
1329208232258,18.5655
1329208292258,18.5854
1329208352258,18.5576
1329208412258,18.6071
1329208472258,18.5907
1329208532258,18.5821
1329208592258,18.4350
1329208652258,18.5314
1329208712258,18.5450
1329208772258,18.5558
1329208832258,18.5559
1329208892258,18.6157
1329208952258,18.5743
1329209012258,18.5091
1329209072258,18.5194
1329209132258,18.4866
1329209192258,18.5686
1329209252258,18.4822
1329209312258,18.5250
1329209372258,18.4997
1329209432258,18.5506
1329209492258,18.5275
1329209552258,18.5162
1329209612258,18.5915
1329209672258,18.5247
1329209732258,18.5475
1329209792258,18.5287
1329209852258,18.5267
1329209912258,18.5617
1329209972258,18.5582
1329210032270,18.5407
1329210092270,18.5468
1329210152270,18.5314
1329210212270,18.5238
1329210272270,18.5363
1329210332270,18.5846
1329210392270,18.5316
1329210452270,18.6078
1329210512270,18.6362
1329210572270,18.6201
1329210632270,18.5809
1329210692270,18.6014
1329210752270,18.6048
1329210812270,18.5800
1329210872270,18.6336
1329210932270,18.5789
1329210992270,18.5681
1329211052270,18.5611
1329211112270,18.5272
1329211172270,18.5397
1329211232270,18.5689
1329211292270,18.5989
1329211352270,18.5014
1329211412270,18.4984
1329211472270,18.5806
1329211532270,18.6058
1329211592270,18.5496
1329211652270,18.5491
1329211712270,18.4752
1329211772270,18.5398
1329211832270,18.5411
1329211892270,18.5572
1329211952270,18.5031
1329212012270,18.5812
1329212072270,18.5087
1329212132270,18.5413
1329212192270,18.4978
1329212252270,18.5675
1329212312270,18.5061
1329212372270,18.4870
1329212432270,18.4571
1329212492270,18.5412
1329212552270,18.4862
1329212612270,18.5222
1329212672270,18.5032
1329212732270,18.5622
1329212792270,18.5370
1329212852270,18.5429
1329212912270,18.5500
1329212972270,18.5309
1329213032270,18.5961
1329213092270,18.4837
1329213152270,18.5181
1329213212270,18.5189
1329213272270,18.4777
1329213332270,18.5183
1329213392270,18.5574
1329213452270,18.5059
1329213512270,18.5179
1329213572270,18.5478
1329213632282,18.5700
1329213692282,18.5447
1329213752282,18.5252
1329213812282,18.5105
1329213872282,18.5340
1329213932282,18.5055
1329213992282,18.4801
1329214052282,18.4619
1329214112282,18.4985
1329214172282,18.5253
1329214232282,18.4838
1329214292282,18.4988
1329214352282,18.5187
1329214412282,18.5189
1329214472282,18.5312
1329214532282,18.6093
1329214592282,18.5587
1329214652282,18.5709
1329214712282,18.5574
1329214772282,18.5592
1329214832282,18.5830
1329214892282,18.5685
1329214952282,18.5733
1329215012282,18.6089
1329215072282,18.5626
1329215132282,18.5558
1329215192282,18.5377
1329215252282,18.5545
1329215312282,18.6145
1329215372282,18.5771
1329215432282,18.5828
1329215492282,18.5017
1329215552282,18.5784
1329215612282,18.5362
1329215672282,18.5502
1329215732282,18.5292
1329215792282,18.5706
1329215852282,18.5622
1329215912282,18.6005
1329215972282,18.5387
1329216032282,18.5652
1329216092282,18.5973
1329216152282,18.5768
1329216212282,18.5308
1329216272282,18.6025
1329216332282,18.5421
1329216392282,18.5029
1329216452282,18.5624
1329216512282,18.5439
1329216572282,18.5201
1329216632282,18.5646
1329216692282,18.5152
1329216752282,18.5692
1329216812282,18.5613
1329216872282,18.5098
1329216932282,18.4653
1329216992282,18.4993
1329217052282,18.4754
1329217112282,18.5256
1329217172282,18.5278
1329217232293,18.5748
1329217292293,18.5569
1329217352293,18.5536
1329217412293,18.5395
1329217472293,18.5762
1329217532293,18.6034
1329217592293,18.5134
1329217652293,18.5589
1329217712293,18.4621
1329217772293,18.5470
1329217832293,18.5052
1329217892293,18.5041
1329217952293,18.5025
1329218012293,18.5546
1329218072293,18.5388
1329218132293,18.5139
1329218192293,18.5281
1329218252293,18.5644
1329218312293,18.5422
1329218372293,18.5282
1329218432293,18.5240
1329218492293,18.5060
1329218552293,18.5062
1329218612293,18.5266
1329218672293,18.5415
1329218732293,18.5162
1329218792293,18.5343
1329218852293,18.5178
1329218912293,18.5275
1329218972293,18.5576
1329219032293,18.5329
1329219092293,18.5142
1329219152293,18.5775
1329219212293,18.5880
1329219272293,18.5434
1329219332293,18.5875
1329219392293,18.6238
1329219452293,18.6143
1329219512293,18.6135
1329219572293,18.6063
1329219632293,18.6468
1329219692293,18.6041
1329219752293,18.6416
1329219812293,18.6671
1329219872293,18.6445
1329219932293,18.6386
1329219992293,18.6445
1329220052293,18.6292
1329220112293,18.5816
1329220172293,18.5960
1329220232293,18.5620
1329220292293,18.5718
1329220352293,18.5654
1329220412293,18.5803
1329220472293,18.5410
1329220532293,18.5847
1329220592293,18.5618
1329220652293,18.5266
1329220712293,18.6017
1329220772293,18.5851
1329220832305,18.5607
1329220892305,18.5730
1329220952305,18.5648
1329221012305,18.5121
1329221072305,18.5803
1329221132305,18.5918
1329221192305,18.4767
1329221252305,18.5094
1329221312305,18.5127
1329221372305,18.5257
1329221432305,18.5493
1329221492305,18.5287
1329221552305,18.5291
1329221612305,18.5925
1329221672305,18.5235
1329221732305,18.5619
1329221792305,18.5303
1329221852305,18.4620
1329221912305,18.5151
1329221972305,18.5087
1329222032305,18.4583
1329222092305,18.5141
1329222152305,18.5516
1329222212305,18.5123
1329222272305,18.4992
1329222332305,18.5403
1329222392305,18.5875
1329222452305,18.5667
1329222512305,18.5110
1329222572305,18.5120
1329222632305,18.5869
1329222692305,18.6039
1329222752305,18.5747
1329222812305,18.5542
1329222872305,18.5744
1329222932305,18.5433
1329222992305,18.5548
1329223052305,18.5615
1329223112305,18.5284
1329223172305,18.5820
1329223232305,18.5952
1329223292305,18.6082
1329223352305,18.5657
1329223412305,18.5697
1329223472305,18.5843
1329223532305,18.5181
1329223592305,18.5979
1329223652305,18.5786
1329223712305,18.5859
1329223772305,18.6193
1329223832305,18.5850
1329223892305,18.5816
1329223952305,18.5377
1329224012305,18.5645
1329224072305,18.5439
1329224132305,18.5373
1329224192305,18.5637
1329224252305,18.5612
1329224312305,18.5679
1329224372305,18.5899
1329224432317,18.5779
1329224492317,18.5681
1329224552317,18.5842
1329224612317,18.5827
1329224672317,18.5738
1329224732317,18.5665
1329224792317,18.5151
1329224852317,18.5290
1329224912317,18.6079
1329224972317,18.5664
1329225032317,18.5528
1329225092317,18.5504
1329225152317,18.5630
1329225212317,18.5521
1329225272317,18.5124
1329225332317,18.5084
1329225392317,18.5430
1329225452317,18.4780
1329225512317,18.5359
1329225572317,18.5577
1329225632317,18.5576
1329225692317,18.5828
1329225752317,18.5903
1329225812317,18.5360
1329225872317,18.5466
1329225932317,18.5327
1329225992317,18.5855
1329226052317,18.5936
1329226112317,18.5296
1329226172317,18.5203
1329226232317,18.5097
1329226292317,18.4930
1329226352317,18.5206
1329226412317,18.5786
1329226472317,18.5830
1329226532317,18.5298
1329226592317,18.5073
1329226652317,18.5581
1329226712317,18.5790
1329226772317,18.5707
1329226832317,18.6241
1329226892317,18.6002
1329226952317,18.5410
1329227012317,18.5353
1329227072317,18.6015
1329227132317,18.6034
1329227192317,18.6246
1329227252317,18.6117
1329227312317,18.5891
1329227372317,18.6034
1329227432317,18.7109
1329227492317,18.6192
1329227552317,18.5685
1329227612317,18.6129
1329227672317,18.5848
1329227732317,18.6344
1329227792317,18.6151
1329227852317,18.5794
1329227912317,18.5820
1329227972317,18.5758
1329228032329,18.5796
1329228092329,18.5866
1329228152329,18.6030
1329228212329,18.5964
1329228272329,18.5904
1329228332329,18.5754
1329228392329,18.5596
1329228452329,18.5459
1329228512329,18.6503
1329228572329,18.6378
1329228632329,18.5849
1329228692329,18.6091
1329228752329,18.6484
1329228812329,18.6372
1329228872329,18.6279
1329228932329,18.6272
1329228992329,18.5540
1329229052329,18.6028
1329229112329,18.5793
1329229172329,18.5957
1329229232329,18.5878
1329229292329,18.6032
1329229352329,18.5862
1329229412329,18.5265
1329229472329,18.5967
1329229532329,18.6148
1329229592329,18.6357
1329229652329,18.6299
1329229712329,18.5690
1329229772329,18.5869
1329229832329,18.5959
1329229892329,18.5741
1329229952329,18.5990
1329230012329,18.6435
1329230072329,18.6001
1329230132329,18.6629
1329230192329,18.6548
1329230252329,18.6085
1329230312329,18.5939
1329230372329,18.5964
1329230432329,18.6139
1329230492329,18.6800
1329230552329,18.6316
1329230612329,18.6136
1329230672329,18.6287
1329230732329,18.6127
1329230792329,18.6208
1329230852329,18.6264
1329230912329,18.5688
1329230972329,18.5983
1329231032329,18.5745
1329231092329,18.6680
1329231152329,18.6264
1329231212329,18.6115
1329231272329,18.5629
1329231332329,18.6317
1329231392329,18.6220
1329231452329,18.5593
1329231512329,18.5290
1329231572329,18.5963
1329231632340,18.5604
1329231692340,18.6044
1329231752340,18.6071
1329231812340,18.5982
1329231872340,18.5825
1329231932340,18.5756
1329231992340,18.5653
1329232052340,18.5452
1329232112340,18.5492
1329232172340,18.5387
1329232232340,18.6044
1329232292340,18.5622
1329232352340,18.5847
1329232412340,18.6550
1329232472340,18.6093
1329232532340,18.5920
1329232592340,18.5310
1329232652340,18.5460
1329232712340,18.6027
1329232772340,18.5394
1329232832340,18.6037
1329232892340,18.5737
1329232952340,18.5714
1329233012340,18.6229
1329233072340,18.5340
1329233132340,18.5334
1329233192340,18.6256
1329233252340,18.5753
1329233312340,18.5994
1329233372340,18.6271
1329233432340,18.5673
1329233492340,18.5492
1329233552340,18.6113
1329233612340,18.6181
1329233672340,18.5704
1329233732340,18.6350
1329233792340,18.5568
1329233852340,18.5400
1329233912340,18.5149
1329233972340,18.5947
1329234032340,18.5443
1329234092340,18.5846
1329234152340,18.5486
1329234212340,18.5625
1329234272340,18.5744
1329234332340,18.5037
1329234392340,18.5584
1329234452340,18.5518
1329234512340,18.5287
1329234572340,18.5754
1329234632340,18.5722
1329234692340,18.5590
1329234752340,18.6061
1329234812340,18.5788
1329234872340,18.5281
1329234932340,18.5689
1329234992340,18.5558
1329235052340,18.5344
1329235112340,18.5604
1329235172340,18.5705
1329235232352,18.5851
1329235292352,18.5747
1329235352352,18.5976
1329235412352,18.5694
1329235472352,18.5610
1329235532352,18.6182
1329235592352,18.6149
1329235652352,18.6130
1329235712352,18.5577
1329235772352,18.6184
1329235832352,18.5970
1329235892352,18.5896
1329235952352,18.6490
1329236012352,18.6290
1329236072352,18.6290
1329236132352,18.6756
1329236192352,18.6551
1329236252352,18.6389
1329236312352,18.6005
1329236372352,18.6260
1329236432352,18.6640
1329236492352,18.6438
1329236552352,18.7099
1329236612352,18.6894
1329236672352,18.6858
1329236732352,18.6583
1329236792352,18.7233
1329236852352,18.6885
1329236912352,18.7004
1329236972352,18.7724
1329237032352,18.6834
1329237092352,18.6792
1329237152352,18.6801
1329237212352,18.7019
1329237272352,18.6582
1329237332352,18.6820
1329237392352,18.7213
1329237452352,18.7565
1329237512352,18.7045
1329237572352,18.6354
1329237632352,18.6651
1329237692352,18.6770
1329237752352,18.7151
1329237812352,18.7447
1329237872352,18.7098
1329237932352,18.6578
1329237992352,18.6275
1329238052352,18.6490
1329238112352,18.6825
1329238172352,18.6907
1329238232352,18.6403
1329238292352,18.6346
1329238352352,18.6356
1329238412352,18.6822
1329238472352,18.6458
1329238532352,18.6647
1329238592352,18.6697
1329238652352,18.6801
1329238712352,18.6839
1329238772352,18.6522
1329238832363,18.6826
1329238892363,18.6409
1329238952363,18.6581
1329239012363,18.7006
1329239072363,18.6320
1329239132363,18.6510
1329239192363,18.6954
1329239252363,18.6300
1329239312363,18.6817
1329239372363,18.6411
1329239432363,18.6628
1329239492363,18.6021
1329240032363,18.6368
1329240092363,18.6095
1329240152363,18.6439
1329240212363,18.6550
1329240272363,18.6052
1329240332363,18.6872
1329240392363,18.6421
1329240452363,18.6668
1329240512363,18.6150
1329240572363,18.6015
1329240632363,18.6218
1329240692363,18.6505
1329240752363,18.5910
1329240812363,18.6490
1329240872363,18.6096
1329240932363,18.6222
1329240992363,18.6041
1329241052363,18.5945
1329241112363,18.7062
1329241172363,18.6000
1329241232363,18.6566
1329241292363,18.6520
1329241352363,18.8350
1329241412363,18.6424
1329241472363,18.6071
1329241532363,18.6463
1329241592363,18.6803
1329241652363,18.6188
1329241712363,18.6279
1329241772363,18.5777
1329241832363,18.5606
1329241892363,18.6031
1329241952363,18.6253
1329242012363,18.5851
1329242072363,18.5773
1329242132363,18.6059
1329242192363,18.5882
1329242252363,18.6034
1329242312363,18.6472
1329242372363,18.6643
1329242432375,18.6340
1329242492375,18.6105
1329242552375,18.6436
1329242612375,18.6122
1329242672375,18.6325
1329242732375,18.6172
1329242792375,18.6854
1329242852375,18.6526
1329242912375,18.5943
1329242972375,18.6142
1329243032375,18.6138
1329243092375,18.5998
1329243152375,18.5938
1329243212375,18.5744
1329243272375,18.5997
1329243332375,18.6169
1329243392375,18.5796
1329243452375,18.6029